Location: Bun Machan
(52.1403°N, 7.3744°W)
Time: 02:50:04
(UTC+00:00)

Cosmos 1656 - Pass Details

Date: 14 July 2020
Orbit: 800 x 848 km, 71.1° (Epoch: 04 August)

Event Time Altitude Azimuth Distance (km) Brightness Sun altitude
Rises 02:25:36 0° 326° (NW) 3,320 7.2 -12.4°
Reaches altitude 10° 02:28:06 10° 319° (NW) 2,385 6.4 -12.2°
Maximum altitude 02:33:12 43° 250° (WSW) 1,121 4.0 -11.9°
Enters shadow 02:37:55 12° 182° (S) 2,242 5.4 -11.5°
